Stafford, VA

6:43 AM EDT on June 25, 2017 (GMT -0400)
Stafford

Weather History for KRMN - February, 2014

Change the Weather History Date:

Tuesday, February 18, 2014

  Actual Average (KNYG) Record (KNYG)
Temperature  
Mean Temperature 44 °F -  
Max Temperature 59 °F 46 °F 75 °F (2011)
Min Temperature 28 °F 29 °F 8 °F (2015)
Degree Days  
Heating Degree Days 22    
Moisture  
Dew Point 26 °F    
Average Humidity 61    
Maximum Humidity 100    
Minimum Humidity 22    
Precipitation  
Precipitation 0.01 in - - ()
Sea Level Pressure  
Sea Level Pressure 30.13 in    
Wind  
Wind Speed 4 mph (South)    
Max Wind Speed 14 mph    
Max Gust Speed 22 mph    
Visibility 10 miles    
Events Snow , Thunderstorm    
Averages and records for this station are not official NWS values.
T = Trace of Precipitation, MM = Missing Value Source: NWS Daily Summary

Daily Weather History Graph

Daily Weather History Graph

Search for Another Location

Airport or City:

Trip Planner

Search our weather history database for the weather conditions in past years. The results will help you decide how hot, cold, wet, or windy it might be!

Date:

Astronomy

Feb. 18, 2014 Rise Set
Actual Time 6:56 AM EST 5:51 PM EST
Civil Twilight 6:29 AM EST 6:18 PM EST
Nautical Twilight 5:58 AM EST 6:49 PM EST
Astronomical Twilight 5:28 AM EST 7:19 PM EST
Moon 9:39 PM EST (2/18) 8:31 AM EST (2/18)
Length of Visible Light 11h 48m
Length of Day
10h 54m
Waning Gibbous, 87% of the Moon is Illuminated
Feb 18
Waning Gibbous
Feb 22
Last Quarter
Mar 1
New
Mar 8
First Quarter
Mar 16
Full

Hourly Weather History & Observations

Time (EST) Temp. Windchill Dew Point Humidity Pressure Visibility Wind Dir Wind Speed Gust Speed Precip Events Conditions
12:15 AM 28.4 °F 24.6 °F 24.8 °F 86% 30.28 in 1.2 mi SSE 3.5 mph - N/A Snow Light Snow
12:35 AM 28.8 °F 23.7 °F 24.8 °F 85% 30.27 in 7.0 mi ESE 4.6 mph - N/A Snow Light Snow
12:55 AM 29.7 °F 24.7 °F 23.9 °F 79% 30.26 in 10.0 mi ESE 4.6 mph - N/A   Overcast
1:15 AM 30.2 °F 26.7 °F 22.6 °F 73% 30.25 in 10.0 mi SE 3.5 mph - N/A   Overcast
1:35 AM 30.6 °F 23.1 °F 22.1 °F 71% 30.22 in 10.0 mi SE 8.1 mph - N/A   Overcast
1:55 AM 31.1 °F 24.5 °F 22.6 °F 71% 30.22 in 10.0 mi SE 6.9 mph - N/A   Overcast
2:15 AM 31.3 °F 24.7 °F 23.2 °F 72% 30.21 in 10.0 mi SE 6.9 mph - N/A   Overcast
2:35 AM 31.1 °F 27.7 °F 24.1 °F 75% 30.21 in 10.0 mi SE 3.5 mph - N/A   Overcast
2:55 AM 31.1 °F 26.4 °F 24.6 °F 77% 30.20 in 10.0 mi SE 4.6 mph - N/A   Overcast
3:15 AM 30.9 °F 25.2 °F 25.0 °F 79% 30.18 in 10.0 mi SSE 5.8 mph - N/A   Overcast
3:35 AM 31.1 °F - 25.0 °F 78% 30.19 in 10.0 mi Calm Calm - N/A   Overcast
3:55 AM 31.1 °F 26.4 °F 25.5 °F 80% 30.23 in 10.0 mi WNW 4.6 mph - N/A   Overcast
4:15 AM 31.1 °F - 25.9 °F 81% 30.22 in 5.0 mi Calm Calm - N/A Snow Light Snow
4:35 AM 30.7 °F 24.1 °F 27.1 °F 86% 30.17 in 7.0 mi SE 6.9 mph - 0.01 in Snow Light Snow
4:55 AM 30.6 °F 24.7 °F 27.1 °F 87% 30.15 in 10.0 mi SE 5.8 mph - 0.01 in   Overcast
5:15 AM 30.7 °F - 26.6 °F 85% 30.17 in 10.0 mi Calm Calm - N/A   Overcast
5:35 AM 30.0 °F - 26.4 °F 86% 30.17 in 10.0 mi Calm Calm - N/A   Scattered Clouds
5:55 AM 29.3 °F 24.3 °F 26.2 °F 88% 30.16 in 10.0 mi South 4.6 mph - N/A   Clear
6:15 AM 28.9 °F 23.9 °F 26.8 °F 92% 30.14 in 10.0 mi SSE 4.6 mph - N/A   Clear
6:35 AM 29.1 °F - 29.1 °F 100% 30.15 in 10.0 mi Calm Calm - N/A   Clear
6:55 AM 28.8 °F - 28.8 °F 100% 30.15 in 10.0 mi Calm Calm - N/A   Clear
7:15 AM 28.6 °F - 28.6 °F 100% 30.14 in 7.0 mi Calm Calm - N/A Thunderstorm Clear
7:35 AM 29.3 °F - 29.3 °F 100% 30.14 in 7.0 mi Calm Calm - N/A   Clear
7:55 AM 30.2 °F - 28.6 °F 94% 30.15 in 7.0 mi Calm Calm - N/A   Clear
8:15 AM 31.6 °F 27.0 °F 28.0 °F 87% 30.13 in 7.0 mi SSW 4.6 mph - N/A   Clear
8:35 AM 32.5 °F - 28.0 °F 83% 30.12 in 7.0 mi Calm Calm - N/A   Clear
8:55 AM 34.7 °F 28.8 °F 28.4 °F 78% 30.11 in 10.0 mi South 6.9 mph - N/A   Clear
9:15 AM 36.5 °F 29.2 °F 28.9 °F 74% 30.11 in 10.0 mi SSW 10.4 mph 16.1 mph N/A   Clear
9:35 AM 38.3 °F 33.9 °F 29.3 °F 70% 30.11 in 10.0 mi SSW 5.8 mph 18.4 mph N/A   Clear
9:55 AM 40.5 °F 33.6 °F 29.3 °F 64% 30.10 in 10.0 mi SSW 11.5 mph 16.1 mph N/A   Clear
10:15 AM 42.8 °F 38.6 °F 29.3 °F 59% 30.09 in 10.0 mi SW 6.9 mph - N/A   Clear
10:35 AM 44.4 °F 40.0 °F 29.5 °F 56% 30.10 in 10.0 mi SSW 8.1 mph - N/A   Clear
10:55 AM 45.5 °F 41.8 °F 28.8 °F 52% 30.09 in 10.0 mi SSW 6.9 mph 21.9 mph N/A   Clear
11:15 AM 47.3 °F - 28.6 °F 48% 30.09 in 10.0 mi SW 9.2 mph - N/A   Clear
11:35 AM 48.6 °F - 27.7 °F 44% 30.09 in 10.0 mi SSW 12.7 mph 20.7 mph N/A   Clear
11:55 AM 49.3 °F - 26.2 °F 41% 30.08 in 10.0 mi SSW 13.8 mph 21.9 mph N/A   Clear
12:15 PM 50.5 °F - 26.1 °F 39% 30.07 in 10.0 mi SW 8.1 mph 17.3 mph N/A   Clear
12:35 PM 51.3 °F - 25.7 °F 37% 30.07 in 10.0 mi SSW 9.2 mph 17.3 mph N/A   Clear
12:55 PM 52.5 °F - 25.5 °F 35% 30.06 in 10.0 mi SW 9.2 mph - N/A   Clear
1:15 PM 54.1 °F - 24.4 °F 32% 30.06 in 10.0 mi SW 8.1 mph - N/A   Clear
1:35 PM 55.2 °F - 23.9 °F 30% 30.06 in 10.0 mi SW 10.4 mph 19.6 mph N/A   Clear
1:55 PM 55.8 °F - 24.1 °F 29% 30.06 in 10.0 mi SW 4.6 mph - N/A   Clear
2:15 PM 56.5 °F - 24.1 °F 29% 30.06 in 10.0 mi WSW 5.8 mph - N/A   Clear
2:35 PM 57.0 °F - 23.9 °F 28% 30.06 in 10.0 mi SSW 6.9 mph - N/A   Clear
2:55 PM 57.6 °F - 23.2 °F 27% 30.06 in 10.0 mi WSW 6.9 mph - N/A   Clear
3:15 PM 58.5 °F - 22.6 °F 25% 30.06 in 10.0 mi South 5.8 mph - N/A   Clear
3:35 PM 59.2 °F - 21.4 °F 23% 30.07 in 10.0 mi SW 6.9 mph - N/A   Clear
3:55 PM 59.2 °F - 21.7 °F 24% 30.07 in 10.0 mi SSW 4.6 mph - N/A   Clear
4:15 PM 59.0 °F - 21.0 °F 23% 30.08 in 10.0 mi SSW 4.6 mph - N/A   Clear
4:35 PM 59.5 °F - 20.5 °F 22% 30.08 in 10.0 mi SW 3.5 mph - N/A   Clear
4:55 PM 58.8 °F - 20.5 °F 23% 30.08 in 10.0 mi WSW 4.6 mph - N/A   Clear
5:15 PM 58.3 °F - 20.3 °F 23% 30.08 in 10.0 mi West 5.8 mph - N/A   Clear
5:35 PM 57.9 °F - 19.0 °F 22% 30.08 in 10.0 mi South 3.5 mph - N/A   Clear
5:55 PM 54.3 °F - 22.1 °F 29% 30.10 in 10.0 mi SSE 3.5 mph - N/A   Clear
6:15 PM 52.3 °F - 22.3 °F 31% 30.10 in 10.0 mi Calm Calm - N/A   Clear
6:35 PM 45.7 °F - 24.4 °F 43% 30.10 in 10.0 mi Calm Calm - N/A   Clear
6:55 PM 43.2 °F 41.5 °F 25.9 °F 51% 30.11 in 10.0 mi ESE 3.5 mph - N/A   Clear
7:15 PM 42.1 °F - 26.4 °F 54% 30.11 in 10.0 mi Calm Calm - N/A   Clear
7:35 PM 40.6 °F - 24.6 °F 53% 30.12 in 10.0 mi Calm Calm - N/A   Clear
7:55 PM 43.0 °F - 25.2 °F 49% 30.12 in 10.0 mi Calm Calm - N/A   Clear
8:15 PM 40.1 °F - 24.8 °F 54% 30.11 in 10.0 mi Calm Calm - N/A   Clear
8:35 PM 39.7 °F - 26.2 °F 59% 30.12 in 10.0 mi Calm Calm - N/A   Clear
8:55 PM 37.9 °F - 27.3 °F 66% 30.11 in 10.0 mi Calm Calm - N/A   Clear
9:15 PM 36.3 °F - 25.5 °F 65% 30.10 in 10.0 mi Calm Calm - N/A   Clear
9:35 PM 36.1 °F - 28.0 °F 72% 30.10 in 10.0 mi Calm Calm - N/A   Clear
9:55 PM 33.1 °F - 26.6 °F 77% 30.11 in 10.0 mi Calm Calm - N/A   Clear
10:15 PM 36.5 °F - 27.5 °F 70% 30.11 in 10.0 mi Calm Calm - N/A   Clear
10:35 PM 36.3 °F - 26.4 °F 67% 30.11 in 10.0 mi Calm Calm - N/A   Clear
10:55 PM 37.2 °F - 26.8 °F 66% 30.11 in 10.0 mi Calm Calm - N/A   Clear
11:15 PM 36.3 °F - 27.3 °F 70% 30.10 in 10.0 mi Calm Calm - N/A   Clear
11:35 PM 36.7 °F - 26.8 °F 67% 30.10 in 10.0 mi Calm Calm - N/A   Clear
11:55 PM 33.6 °F - 26.1 °F 74% 30.09 in 10.0 mi Calm Calm - N/A   Clear